SR5NLK-1 Weather Reports


Display with metric or nautical units.
time (UTC)temp
F
wind
direction
speed
MPH
gust
MPH
rain 1hr
in
rain 24hr
in
rain mn
in
humidity
%
barometer
mb
20260503013505 51 202 3.0 5.0 0.00 0.00 0.00 61 1062.6
20260503013005 51 202 3.0 4.0 0.00 0.00 0.00 61 1043.9
20260503012505 51 225 4.0 5.0 0.00 0.00 0.00 61 1053.0
20260503012404 51 202 3.0 5.0 0.00 0.00 0.00 61 1078.9
20260503012005 51 202 3.0 6.0 0.00 0.00 0.00 61 1030.9
20260503011511 51 202 2.0 2.0 0.00 0.00 0.00 1042.4
20260503011505 51 202 2.0 2.0 0.00 0.00 0.00 61 1042.4
20260503011005 51 202 1.0 2.0 0.00 0.00 0.00 61 997.7
20260503010505 51 225 1.0 2.0 0.00 0.00 0.00 61 1045.4
20260503010005 51 225 2.0 3.0 0.00 0.00 0.00 61 1055.9
20260503005505 51 225 3.0 3.0 0.00 0.00 0.00 62 1078.6
20260503005104 51 247 1.0 2.0 0.00 0.00 0.00 62 995.1
20260503005005 51 225 2.0 2.0 0.00 0.00 0.00 62 1040.6
20260503004505 51 247 0.0 2.0 0.00 0.00 0.00 61 1066.6
20260503004005 51 247 2.0 2.0 0.00 0.00 0.00 61 1049.1
20260503003505 51 270 0.0 1.0 0.00 0.00 0.00 60 996.3
20260503003005 51 270 0.0 1.0 0.00 0.00 0.00 60 1006.1
20260503002505 51 270 0.0 1.0 0.00 0.00 0.00 59 1084.7
20260503002005 52 225 0.0 1.0 0.00 0.00 0.00 58 1036.6
20260503001804 52 247 0.0 1.0 0.00 0.00 0.00 57 1048.4
20260503001505 52 270 0.0 1.0 0.00 0.00 0.00 57 1044.0
20260503001005 52 247 0.0 0.0 0.00 0.00 0.00 56 1001.1
20260503000505 53 225 0.0 0.0 0.00 0.00 0.00 55 1081.5
20260503000005 53 225 0.0 1.0 0.00 0.00 0.00 55 1035.9
20260502235505 54 225 0.0 1.0 0.00 0.00 0.00 55 1005.5
20260502235005 54 202 0.0 3.0 0.00 0.00 0.00 55 997.9
20260502234504 54 202 3.0 3.0 0.00 0.00 0.00 55 1044.4
20260502234005 54 180 3.0 4.0 0.00 0.00 0.00 55 1049.1
20260502233505 53 180 3.0 5.0 0.00 0.00 0.00 56 1010.3
20260502233005 53 225 5.0 6.0 0.00 0.00 0.00 56 1072.1
20260502232505 53 202 4.0 5.0 0.00 0.00 0.00 55 1042.8
20260502232005 53 157 0.0 1.0 0.00 0.00 0.00 55 1082.0
20260502231505 53 225 1.0 1.0 0.00 0.00 0.00 54 961.3
20260502231204 53 180 0.0 1.0 0.00 0.00 0.00 54 963.9
20260502231005 53 180 0.0 1.0 0.00 0.00 0.00 54 1054.2
20260502230505 53 157 0.0 1.0 0.00 0.00 0.00 54 962.1
20260502230005 54 157 0.0 0.0 0.00 0.00 0.00 53 1063.5
20260502225505 54 157 0.0 0.0 0.00 0.00 0.00 53 1042.8
20260502225005 54 180 0.0 0.0 0.00 0.00 0.00 52 1019.5
20260502224505 54 157 0.0 1.0 0.00 0.00 0.00 52 1056.4
20260502224005 55 247 0.0 2.0 0.00 0.00 0.00 51 1076.5
20260502223904 55 202 0.0 2.0 0.00 0.00 0.00 51 1082.8
20260502223505 55 157 0.0 1.0 0.00 0.00 0.00 51 1089.5
20260502223005 55 180 0.0 1.0 0.00 0.00 0.00 51 1072.1
20260502222505 55 270 0.0 0.0 0.00 0.00 0.00 50 998.5
20260502222005 56 180 0.0 1.0 0.00 0.00 0.00 50 1018.5
20260502221505 56 202 1.0 1.0 0.00 0.00 0.00 49 1013.3
20260502221005 56 225 0.0 2.0 0.00 0.00 0.00 48 1003.3
20260502220604 56 202 2.0 2.0 0.00 0.00 0.00 48 958.2
20260502220505 57 202 2.0 2.0 0.00 0.00 0.00 47 1039.7
20260502220005 57 225 2.0 2.0 0.00 0.00 0.00 47 1045.7
20260502215505 57 202 0.0 2.0 0.00 0.00 0.00 46 1053.3
20260502215005 58 225 1.0 3.0 0.00 0.00 0.00 46 1015.2
20260502214505 58 202 1.0 3.0 0.00 0.00 0.00 45 1050.1
20260502214005 58 202 2.0 4.0 0.00 0.00 0.00 45 1097.2
20260502213505 58 202 2.0 5.0 0.00 0.00 0.00 45 1052.2
20260502213304 58 202 4.0 5.0 0.00 0.00 0.00 45 1081.5
20260502213005 58 202 2.0 4.0 0.00 0.00 0.00 45 1013.5
20260502212506 58 180 2.0 4.0 0.00 0.00 0.00 45 1039.7
20260502212005 58 202 4.0 4.0 0.00 0.00 0.00 44 1033.4
20260502211505 59 202 1.0 2.0 0.00 0.00 0.00 44 1044.9
20260502211005 59 202 1.0 2.0 0.00 0.00 0.00 43 1087.8
20260502210505 59 180 2.0 3.0 0.00 0.00 0.00 43 1091.6
20260502210004 59 202 2.0 5.0 0.00 0.00 0.00 43 1049.0
20260502205505 59 180 4.0 6.0 0.00 0.00 0.00 43 1072.1
20260502205005 59 202 3.0 3.0 0.00 0.00 0.00 43 994.5
20260502204505 59 202 3.0 3.0 0.00 0.00 0.00 43 1013.1
20260502204005 60 202 2.0 4.0 0.00 0.00 0.00 42 1057.0
20260502203505 60 180 0.0 2.0 0.00 0.00 0.00 42 1100.3
20260502203005 60 225 2.0 4.0 0.00 0.00 0.00 42 1055.4
20260502202704 60 202 2.0 2.0 0.00 0.00 0.00 41 1100.3
20260502202505 60 180 1.0 2.0 0.00 0.00 0.00 41 1072.2
20260502202005 61 202 2.0 2.0 0.00 0.00 0.00 41 962.3
20260502201505 61 202 1.0 2.0 0.00 0.00 0.00 40 1001.0
20260502201005 61 157 2.0 3.0 0.00 0.00 0.00 40 1046.0
20260502200506 61 202 1.0 3.0 0.00 0.00 0.00 40 1087.8
20260502200005 61 202 3.0 4.0 0.00 0.00 0.00 40 1006.8
20260502195513 61 202 1.0 3.0 0.00 0.00 0.00 40 1075.2
20260502195505 61 202 1.0 3.0 0.00 0.00 0.00 40 1075.2
20260502195404 61 202 3.0 3.0 0.00 0.00 0.00 40 1039.6
20260502195005 61 202 1.0 2.0 0.00 0.00 0.00 40 1090.9
20260502194505 62 202 2.0 3.0 0.00 0.00 0.00 40 1081.6
20260502194005 62 180 3.0 3.0 0.00 0.00 0.00 40 1027.1
20260502193654 63 180 1.0 1.0 0.00 0.00 0.00 39 1090.9
20260502193505 63 180 1.0 1.0 0.00 0.00 0.00 39 1090.9
20260502193005 63 135 0.0 0.0 0.00 0.00 0.00 39 1094.1
20260502192505 64 135 0.0 0.0 0.00 0.00 0.00 38 997.9
20260502192105 64 135 0.0 1.0 0.00 0.00 0.00 37 1087.8
20260502192005 64 135 0.0 1.0 0.00 0.00 0.00 37 1097.2
20260502191630 64 157 0.0 1.0 0.00 0.00 0.00 36 1097.2
20260502191505 64 157 0.0 1.0 0.00 0.00 0.00 36 1097.2
20260502191005 65 157 0.0 1.0 0.00 0.00 0.00 36 988.5
20260502190505 65 157 0.0 0.0 0.00 0.00 0.00 35 1046.0
20260502190005 66 157 0.0 0.0 0.00 0.00 0.00 34 1007.2
20260502185512 66 157 0.0 0.0 0.00 0.00 0.00 34
20260502185505 66 157 0.0 0.0 0.00 0.00 0.00 34 1017.3
20260502185005 67 157 0.0 1.0 0.00 0.00 0.00 33 1097.2
20260502184805 67 157 0.0 2.0 0.00 0.00 0.00 32 1075.2
20260502184506 68 202 0.0 2.0 0.00 0.00 0.00 32 1033.4
20260502184006 68 202 1.0 3.0 0.00 0.00 0.00 32 1087.8
20260502183506 68 247 2.0 3.0 0.00 0.00 0.00 31 1087.8
20260502183006 69 225 2.0 4.0 0.00 0.00 0.00 31 1004.1
20260502182506 69 225 2.0 3.0 0.00 0.00 0.00 30 1033.4
20260502182006 70 225 2.0 4.0 0.00 0.00 0.00 30 1072.1
20260502181505 70 225 4.0 4.0 0.00 0.00 0.00 30 1019.8
20260502181006 71 225 2.0 4.0 0.00 0.00 0.00 29 1033.4
20260502180506 72 247 3.0 4.0 0.00 0.00 0.00 29 1010.4
20260502170506 78 292 3.0 7.0 0.00 0.00 0.00 24 1007.3
20260502164006 79 202 3.0 9.0 0.00 0.00 0.00 24 1004.1
20260502163605 79 270 8.0 11.0 0.00 0.00 0.00 24 1015.1
20260502163506 79 270 4.0 11.0 0.00 0.00 0.00 24 997.9
20260502163006 79 247 5.0 9.0 0.00 0.00 0.00 24 1042.8
20260502162506 79 270 6.0 9.0 0.00 0.00 0.00 24 968.6
20260502162012 80 270 4.0 7.0 0.00 0.00 0.00 24 1039.7
20260502162006 80 270 4.0 7.0 0.00 0.00 0.00 24 1039.7
20260502161506 80 247 4.0 9.0 0.00 0.00 0.00 24 1090.9
20260502161006 80 247 8.0 10.0 0.00 0.00 0.00 24 1013.5
20260502160506 80 270 7.0 12.0 0.00 0.00 0.00 24 968.6
20260502160305 81 270 4.0 12.0 0.00 0.00 0.00 24 1056.1
20260502152006 80 292 0.0 10.0 0.00 0.00 0.00 23 1007.3
20260502151506 80 0 2.0 4.0 0.00 0.00 0.00 23 1019.4
20260502151006 80 0 2.0 5.0 0.00 0.00 0.00 22 997.9
20260502150506 81 337 4.0 10.0 0.00 0.00 0.00 22 1046.0
20260502130506 84 247 4.0 7.0 0.00 0.00 0.00 23 1075.3
20260502123506 82 292 10.0 10.0 0.00 0.00 0.00 24 1037.5
20260502123006 82 202 0.0 15.0 0.00 0.00 0.00 24 1042.8
20260502122506 82 225 1.0 12.0 0.00 0.00 0.00 25 1087.8
20260502122006 82 157 6.0 11.0 0.00 0.00 0.00 24 1033.3
20260502121506 82 270 2.0 9.0 0.00 0.00 0.00 23 1094.1
20260502121205 82 202 2.0 9.0 0.00 0.00 0.00 23 1030.2
20260502121006 82 270 6.0 6.0 0.00 0.00 0.00 23 1087.8
20260502120506 82 202 2.0 9.0 0.00 0.00 0.00 25 1062.6
20260502115506 83 337 2.0 9.0 0.00 0.00 0.00 24 1075.3
20260502115006 83 157 2.0 10.0 0.00 0.00 0.00 25 1042.8
20260502114506 83 202 10.0 10.0 0.00 0.00 0.00 25 1039.7
20260502114006 82 270 7.0 8.0 0.00 0.00 0.00 24 1078.3
20260502113905 82 202 8.0 8.0 0.00 0.00 0.00 24 1087.8
20260502113506 82 202 3.0 6.0 0.00 0.00 0.00 24 1037.5
20260502113006 81 270 2.0 5.0 0.00 0.00 0.00 24 1050.1
20260502112506 82 315 3.0 10.0 0.00 0.00 0.00 24 1065.8
20260502112006 82 292 1.0 5.0 0.00 0.00 0.00 24 991.6
20260502111506 82 247 5.0 9.0 0.00 0.00 0.00 25 1059.5
20260502111006 82 157 2.0 10.0 0.00 0.00 0.00 25 1069.0
20260502110605 81 202 1.0 13.0 0.00 0.00 0.00 25 1039.7
20260502110506 82 225 1.0 13.0 0.00 0.00 0.00 25 1075.2
20260502110006 81 292 1.0 12.0 0.00 0.00 0.00 26 1084.6
20260502105506 80 202 4.0 8.0 0.00 0.00 0.00 26 1075.2
20260502105006 79 270 10.0 11.0 0.00 0.00 0.00 27 1046.9
20260502104506 79 292 2.0 15.0 0.00 0.00 0.00 27 1059.5
20260502104006 78 202 10.0 14.0 0.00 0.00 0.00 26 1036.6
20260502103506 78 292 4.0 10.0 0.00 0.00 0.00 26 1053.2
20260502103305 78 247 2.0 10.0 0.00 0.00 0.00 26 1065.8
20260502103007 78 292 4.0 12.0 0.00 0.00 0.00 26 1053.2
20260502102506 79 292 11.0 11.0 0.00 0.00 0.00 26 1059.5
20260502102006 79 157 1.0 10.0 0.00 0.00 0.00 27 1065.8
20260502101506 79 270 10.0 13.0 0.00 0.00 0.00 27 1053.2
20260502101006 78 202 3.0 10.0 0.00 0.00 0.00 27 1065.8
20260502100506 78 337 2.0 6.0 0.00 0.00 0.00 27 1062.7
20260502091506 78 202 4.0 17.0 0.00 0.00 0.00 27 1020.8
20260502091007 78 225 5.0 11.0 0.00 0.00 0.00 27 1053.2
20260502090507 79 247 11.0 14.0 0.00 0.00 0.00 27 1024.0
20260502071506 90 225 8.0 8.0 0.00 0.00 0.00 25 1072.1
20260502071007 90 202 3.0 8.0 0.00 0.00 0.00 25 1075.3
20260502070507 89 202 3.0 7.0 0.00 0.00 0.00 26 1062.7
20260502070007 88 247 6.0 6.0 0.00 0.00 0.00 26 1062.7
20260502065507 87 225 3.0 9.0 0.00 0.00 0.00 26 1050.1
20260502065008 87 225 5.0 10.0 0.00 0.00 0.00 26 1053.2
20260502064507 88 202 6.0 10.0 0.00 0.00 0.00 26 1072.1
20260502064206 88 202 9.0 9.0 0.00 0.00 0.00 27 1056.4
20260502064007 87 180 4.0 6.0 0.00 0.00 0.00 27 1069.0
20260502063507 88 270 5.0 7.0 0.00 0.00 0.00 27 1027.1
20260502063007 88 270 4.0 7.0 0.00 0.00 0.00 27 1068.9
20260502062515 88 180 4.0 8.0 0.00 0.00 0.00 27
20260502062507 88 180 4.0 8.0 0.00 0.00 0.00 27 1062.7
20260502062007 88 202 5.0 7.0 0.00 0.00 0.00 27 1065.8
20260502061507 88 157 3.0 6.0 0.00 0.00 0.00 27 1068.9
20260502061007 88 202 6.0 6.0 0.00 0.00 0.00 28 1062.7
20260502060906 88 202 4.0 4.0 0.00 0.00 0.00 28 1069.0
20260502060507 87 157 2.0 3.0 0.00 0.00 0.00 28 1062.7
20260502060007 85 180 2.0 3.0 0.00 0.00 0.00 29 1062.7
20260502055507 85 180 0.0 3.0 0.00 0.00 0.00 29 1069.0
20260502055007 84 225 2.0 3.0 0.00 0.00 0.00 30 1050.1
20260502054507 84 247 2.0 3.0 0.00 0.00 0.00 30 1068.9
20260502054007 83 202 3.0 4.0 0.00 0.00 0.00 30 1026.0
20260502053606 83 157 3.0 3.0 0.00 0.00 0.00 31 1062.7
20260502053515 83 247 2.0 4.0 0.00 0.00 0.00 31 1056.4
20260502053507 83 247 2.0 4.0 0.00 0.00 0.00 31 1056.4
20260502053007 82 180 0.0 4.0 0.00 0.00 0.00 31 1040.6
20260502052507 82 157 2.0 7.0 0.00 0.00 0.00 31 1065.8
20260502052007 81 225 3.0 4.0 0.00 0.00 0.00 33 1065.8
20260502051507 80 180 2.0 5.0 0.00 0.00 0.00 34 1037.4
20260502051007 80 202 1.0 4.0 0.00 0.00 0.00 35 1069.0
20260502050507 79 202 1.0 4.0 0.00 0.00 0.00 36 1053.2
20260502050306 78 180 0.0 4.0 0.00 0.00 0.00 37 1037.4
20260502050007 77 157 2.0 4.0 0.00 0.00 0.00 37 1018.5
20260502045507 76 180 2.0 2.0 0.00 0.00 0.00 39 1047.0
20260502045007 75 112 0.0 2.0 0.00 0.00 0.00 40 1021.7
20260502044507 73 180 1.0 3.0 0.00 0.00 0.00 42 1059.5
20260502044007 71 157 0.0 1.0 0.00 0.00 0.00 44 1045.2
20260502043507 69 90 0.0 1.0 0.00 0.00 0.00 46 1050.1
20260502043006 66 112 0.0 2.0 0.00 0.00 0.00 49 1053.2
20260502042507 64 157 2.0 2.0 0.00 0.00 0.00 52 1043.8
20260502042007 62 135 0.0 1.0 0.00 0.00 0.00 56 1034.3
20260502041507 59 135 0.0 1.0 0.00 0.00 0.00 60 1034.3
20260502041007 57 112 0.0 1.0 0.00 0.00 0.00 66 1046.9
20260502040507 54 112 0.0 1.0 0.00 0.00 0.00 70 1015.3
20260502040007 52 112 1.0 1.0 0.00 0.00 0.00 75 1026.4
20260502035706 50 112 0.0 0.0 0.00 0.00 0.00 77 1037.5
20260502035507 49 112 0.0 1.0 0.00 0.00 0.00 77 1034.3
20260502035007 47 67 0.0 1.0 0.00 0.00 0.00 77 1021.7
20260502034507 44 112 1.0 2.0 0.00 0.00 0.00 75 1024.8
20260502034007 43 112 0.0 0.0 0.00 0.00 0.00 74 1031.1
20260502033507 42 135 0.0 1.0 0.00 0.00 0.00 74 1037.5
20260502033007 42 112 0.0 0.0 0.00 0.00 0.00 74 1012.2
20260502032507 42 112 0.0 0.0 0.00 0.00 0.00 74 1046.9
20260502032406 42 112 0.0 0.0 0.00 0.00 0.00 74 1034.3
20260502032007 42 90 0.0 0.0 0.00 0.00 0.00 74 1024.9
20260502031507 41 135 0.0 0.0 0.00 0.00 0.00 74 1040.6
20260502031007 41 135 0.0 0.0 0.00 0.00 0.00 74 1043.8
20260502030507 41 67 0.0 0.0 0.00 0.00 0.00 74 1037.4
20260502030007 41 157 0.0 0.0 0.00 0.00 0.00 74 1043.8
20260502025507 41 112 0.0 0.0 0.00 0.00 0.00 74 1043.8
20260502025106 41 112 0.0 0.0 0.00 0.00 0.00 74 1034.3
20260502025007 41 112 0.0 0.0 0.00 0.00 0.00 73 1028.0
20260502024507 42 112 0.0 1.0 0.00 0.00 0.00 73 1040.6
20260502024007 42 112 0.0 0.0 0.00 0.00 0.00 73 1040.6
20260502023507 42 112 0.0 1.0 0.00 0.00 0.00 74 1028.0
20260502023007 42 112 0.0 0.0 0.00 0.00 0.00 74 1037.4
20260502022507 42 135 0.0 0.0 0.00 0.00 0.00 74 1034.3
20260502022007 42 135 0.0 0.0 0.00 0.00 0.00 74 1015.4
20260502021806 42 135 0.0 0.0 0.00 0.00 0.00 74 1043.8
20260502021507 42 135 0.0 0.0 0.00 0.00 0.00 74 1053.2
20260502021007 42 112 0.0 2.0 0.00 0.00 0.00 74 1056.4
20260502020507 42 135 0.0 0.0 0.00 0.00 0.00 74 1053.2
20260502020007 42 135 0.0 0.0 0.00 0.00 0.00 74 1038.2
20260502015507 42 135 0.0 1.0 0.00 0.00 0.00 74 1056.4
20260502015007 42 135 0.0 1.0 0.00 0.00 0.00 74 1053.2
20260502014506 42 112 0.0 0.0 0.00 0.00 0.00 74 1018.5
20260502014007 42 112 0.0 0.0 0.00 0.00 0.00 74 1050.1